This is the latest recevied weather packets stored in our database for station/object KK7ISX. If no packets are shown the sender has not sent any weather packets the latest 10 day(s).
| Time | Temp. | Humidity | Pressure | Rain* | Wind** | Luminosity | Snow |
|---|---|---|---|---|---|---|---|
| 1778094566 | 20.56° C | 32% | 1019.2 hPa | 0 mm | - | 765 W/m² | - |
| 1778094263 | 20.56° C | 31% | 1019.5 hPa | 0 mm | - | 764 W/m² | - |
| 1778093960 | 20° C | 33% | 1019.2 hPa | 0 mm | - | 764 W/m² | - |
| 1778093657 | 20.56° C | 32% | 1019.5 hPa | 0 mm | - | 763 W/m² | - |
| 1778093354 | 20° C | 31% | 1019.6 hPa | 0 mm | - | 762 W/m² | - |
| 1778093051 | 20° C | 32% | 1019.7 hPa | 0 mm | - | 762 W/m² | - |
| 1778092748 | 19.44° C | 32% | 1019.4 hPa | 0 mm | - | 762 W/m² | - |
| 1778092443 | 20° C | 31% | 1019.6 hPa | 0 mm | - | 762 W/m² | - |
| 1778092141 | 19.44° C | 33% | 1019.7 hPa | 0 mm | - | 759 W/m² | - |
| 1778091838 | 18.89° C | 33% | 1019.7 hPa | 0 mm | - | 758 W/m² | - |
| 1778091535 | 19.44° C | 32% | 1019.8 hPa | 0 mm | - | 755 W/m² | - |
| 1778091233 | 18.89° C | 31% | 1019.9 hPa | 0 mm | - | 752 W/m² | - |
| 1778090930 | 18.89° C | 32% | 1020 hPa | 0 mm | - | 748 W/m² | - |
| 1778090626 | 18.89° C | 32% | 1020 hPa | 0 mm | - | 743 W/m² | - |
| 1778090322 | 18.89° C | 32% | 1019.9 hPa | 0 mm | - | 737 W/m² | - |
| 1778090019 | 18.33° C | 31% | 1020.1 hPa | 0 mm | - | 730 W/m² | - |
| 1778089715 | 18.33° C | 31% | 1020.1 hPa | 0 mm | - | 721 W/m² | - |
| 1778089413 | 18.33° C | 32% | 1020.1 hPa | 0 mm | - | 712 W/m² | - |
| 1778089105 | 17.78° C | 33% | 1020.2 hPa | 0 mm | - | 703 W/m² | - |
| 1778088802 | 17.78° C | 32% | 1019.9 hPa | 0 mm | - | 693 W/m² | - |
| 1778088499 | 17.78° C | 33% | 1020.1 hPa | 0 mm | - | 682 W/m² | - |
| 1778088195 | 17.22° C | 32% | 1020 hPa | 0 mm | - | 671 W/m² | - |
| 1778087893 | 17.22° C | 32% | 1020.1 hPa | 0 mm | - | 660 W/m² | - |
| 1778087590 | 16.67° C | 33% | 1020.2 hPa | 0 mm | - | 648 W/m² | - |
| 1778087288 | 17.22° C | 32% | 1020.3 hPa | 0 mm | - | 635 W/m² | - |
* Rain latest hour (hover to see other rain measurements)
** Current wind speed in m/s (hover to see current wind gust speed)